User: anonymous   Login
Location: Unspecified
(0.0000°N, 0.0000°E)
Time: 21:01:29
(UTC+00:00)
Language:

OTS 2 - Orbit

View from above orbital plane
View from above orbital plane
View from above satellite
View from above satellite

Ground track
Ground track

The orbit data is extracted from the following two-line orbital elements,

1 10855U 78044A   18014.91280316 +.00000052 +00000-0 +00000-0 0  9993
2 10855 013.9071 333.0226 0012948 291.9398 250.1296 00.99135938173504
Epoch (UTC): 14 January 2018 21:54:26
Eccentricity: 0.0012948
inclination: 13.9071°
perigee height: 36052 km
apogee height: 36162 km
right ascension of ascending node: 333.0226°
argument of perigee: 291.9398°
revolutions per day: 0.99135938
mean anomaly at epoch: 250.1296°
orbit number at epoch: 17350

The dashed part of the orbit path shows where the satellite is in the earth's shadow,  

DLR